Location: Pallagorio
(39.3000°N, 16.9000°E)
Time: 21:25:43
(UTC+00:00)

Meteor 1-27 - Pass Details

Date: 24 January 2021
Orbit: 837 x 893 km, 81.3° (Epoch: 03 March)

Event Time Altitude Azimuth Distance (km) Brightness Sun altitude
Rises 18:14:25 0° 351° (N) 3,423 7.4 -25.2°
Reaches altitude 10° 18:16:51 10° 352° (N) 2,476 6.7 -25.7°
Maximum altitude 18:22:29 84° 81° (E) 850 4.0 -26.8°
Enters shadow 18:23:19 65° 157° (SSE) 918 4.2 -26.9°
